Flag for China Weather past 2 weeks in Taiyuan, Shanxi, China

Now
54 °F

Haze.


Feels Like: 53 °F
Forecast: 48 / 65 °F
Wind: 3 mph from East

Location: Taiyuan Airport

Current Time: Oct 25, 2014 at 10:53:34 PM

Latest Report: Oct 25, 2014 at 10:30 PM


Visibility: 2 mi

Pressure: 30.01 "Hg

Humidity: 58%

Dew point: 39 °F

Location of TaiyuanLocation

Historic Weather in Taiyuan — Graph

°F

Taiyuan temperature yesterday

Maximum temperature yesterday: 73 °F (at 3:30 PM)
Minimum temperature yesterday: 41 °F (at 4:30 AM)
Average temperature yesterday: 55 °F

Past Weeks' High & Low Weather Summary

 TemperatureHumidityPressure
High75 °F (Oct 25, 3:00 PM)93% (Oct 13, 2:00 AM)30.54 "Hg (Oct 13, 2:00 AM)
Low34 °F (Oct 16, 6:00 AM)13% (Oct 15, 3:00 PM)29.89 "Hg (Oct 24, 3:00 PM)
Average53 °F62%30.15 "Hg
* Reported Oct 10 9:00 PM — Oct 25 9:30 PM, Taiyuan, Weather by CustomWeather, © 2014

Note: Actual official high and low records may vary slightly from our data, if they occured in-between our weather recording intervals... More about our weather records

Advertising

Taiyuan weather history for previous 24 hours

 ConditionsComfort  
Time TempWeatherWind HumidityBarometerVisibility
9:30 PM
Oct 25
57 °FHaze.3 mph51%30.01 "Hg2 mi
9:00 PM55 °FHaze.3 mph59%29.98 "Hg2 mi
8:30 PM54 °FHaze.1 mph63%29.98 "Hg2 mi
8:00 PM59 °FHaze.1 mph51%29.98 "Hg2 mi
7:30 PM59 °FHaze.1 mph51%29.95 "Hg2 mi
7:00 PM61 °FHaze.1 mph48%29.95 "Hg2 mi
6:30 PM64 °FHaze.3 mph43%29.95 "Hg2 mi
6:00 PM61 °FHaze.1 mph52%29.92 "Hg2 mi
5:30 PM66 °FClear.3 mph37%29.92 "Hg4 mi
5:00 PM72 °FSunny.1 mph29%29.92 "Hg10 mi
4:30 PM73 °FSunny.6 mph27%29.92 "Hg10 mi
4:00 PM75 °FSunny.3 mph25%29.92 "Hg10 mi
3:30 PM75 °FSunny.3 mph24%29.92 "Hg10 mi
3:00 PM75 °FClear.3 mph27%29.92 "Hg5 mi
2:30 PM73 °FClear.3 mph27%29.92 "Hg4 mi
2:00 PM73 °FClear.3 mph29%29.92 "Hg4 mi
1:30 PM72 °FClear.3 mph31%29.95 "Hg4 mi
1:00 PM70 °FHaze.1 mph33%29.95 "Hg3 mi
12:30 PM70 °FHaze.3 mph35%29.98 "Hg3 mi
12:00 PM66 °FHaze.1 mph40%30.01 "Hg2 mi
11:30 AM64 °FHaze.3 mph43%30.01 "Hg2 mi
10:30 AM61 °FHaze.1 mph52%30.01 "Hg2 mi
10:00 AM59 °FHaze.1 mph59%30.04 "Hg1 mi
9:30 AM55 °FHaze.1 mph67%30.04 "Hg1 mi
9:00 AM52 °FFog.1 mph77%30.04 "Hg1 mi
8:30 AM48 °FFog.1 mph87%30.04 "Hg1 mi
8:00 AM45 °FFog.No wind93%30.04 "Hg1 mi
7:30 AM41 °FFog.No wind93%30.01 "Hg1 mi
7:00 AM43 °FFog.1 mph87%30.01 "Hg1 mi
6:30 AM43 °FFog.1 mph87%29.98 "Hg1 mi
6:00 AM41 °FFog.1 mph87%29.98 "Hg1 mi
5:30 AM45 °FFog.1 mph87%29.98 "Hg1 mi
5:00 AM45 °FFog.1 mph81%29.98 "Hg1 mi
4:30 AM43 °FFog.1 mph87%29.98 "Hg2 mi
4:00 AM45 °FFog.1 mph81%29.98 "Hg2 mi
3:30 AM46 °FHaze.1 mph82%29.98 "Hg2 mi
3:00 AM48 °FHaze.3 mph76%29.98 "Hg2 mi
2:30 AM48 °FHaze.3 mph76%29.98 "Hg2 mi
2:00 AM48 °FHaze.3 mph76%29.98 "Hg2 mi
1:30 AM48 °FHaze.1 mph71%29.98 "Hg2 mi
1:00 AM48 °FHaze.1 mph76%29.98 "Hg2 mi
12:30 AM50 °FHaze.3 mph71%29.98 "Hg2 mi
12:00 AM48 °FHaze.3 mph76%29.98 "Hg2 mi
11:30 PM
Oct 24
52 °FHaze.3 mph67%29.98 "Hg2 mi
11:00 PM52 °FHaze.3 mph67%29.98 "Hg2 mi
10:30 PM54 °FHaze.3 mph63%29.98 "Hg2 mi
10:00 PM52 °FHaze.3 mph67%29.98 "Hg2 mi
Weather by CustomWeather, © 2014

See weather overviewHow to use our weather pages